Flag for Brazil Weather past 2 weeks in Campinas, São Paulo, Brazil

Now
66 °F

Clear.


Feels Like: 66 °F
Forecast: 60 / 86 °F
Wind: 5 mph from East

Location: Campinas Aeroporto

Current Time: Sep 3, 2015 at 10:11:39 AM

Latest Report: Sep 3, 2015 at 9:00 AM


Visibility: 4 mi

Pressure: 30.07 "Hg (27.75 "Hg at 686m altitude)

Humidity: 73%

Dew point: 57 °F

Location of CampinasLocation

Historic Weather in Campinas — Graph

°F

Campinas temperature yesterday

Maximum temperature yesterday: 77 °F (at 4:00 PM)
Minimum temperature yesterday: 61 °F (at 5:00 AM)
Average temperature yesterday: 66 °F

Past Weeks' High & Low Weather Summary

 TemperatureHumidityPressure
High90 °F (Aug 31, 2:00 PM)100% (Aug 23, 7:00 AM)30.27 "Hg (Aug 23, 7:00 AM)
Low54 °F (Aug 29, 6:00 AM)15% (Aug 23, 4:00 PM)29.95 "Hg (Aug 19, 2:00 PM)
Average68 °F66%30.11 "Hg
* Reported Aug 19 9:00 AM — Sep 3 9:00 AM, Campinas, Weather by CustomWeather, © 2015

Note: Actual official high and low records may vary slightly from our data, if they occured in-between our weather recording intervals... More about our weather records

Advertising

Campinas weather history for previous 24 hours

 ConditionsComfort  
Time TempWeatherWind HumidityBarometerVisibility
9:00 AM
Thu, Sep 3
66 °FClear.5 mph73%30.07 "Hg4 mi
8:00 AM61 °FScattered clouds.8 mph88%30.07 "Hg4 mi
7:00 AM59 °FCool.N/A94%30.07 "HgN/A
6:00 AM57 °FSunny.8 mph100%30.07 "Hg10 mi
5:00 AM59 °FClear.12 mph94%30.07 "Hg10 mi
4:00 AM59 °FClear.10 mph94%30.07 "Hg10 mi
3:00 AM59 °FClear.9 mph94%30.07 "Hg10 mi
2:00 AM59 °FClear.9 mph88%30.07 "Hg10 mi
1:00 AM61 °FClear.12 mph83%30.09 "Hg10 mi
12:00 AM61 °FClear.12 mph83%30.09 "Hg10 mi
11:00 PM
Wed, Sep 2
63 °FClear.16 mph77%30.12 "Hg10 mi
10:00 PM61 °FClear.14 mph83%30.09 "Hg10 mi
9:00 PM63 °FClear.15 mph77%30.09 "Hg10 mi
8:00 PM64 °FClear.15 mph73%30.09 "Hg10 mi
7:00 PM66 °FClear.14 mph73%30.09 "Hg10 mi
6:00 PM72 °FClear.10 mph57%30.09 "Hg10 mi
5:00 PM75 °FClear.8 mph47%30.07 "Hg10 mi
4:00 PM77 °FSunny.8 mph44%30.07 "Hg10 mi
3:00 PM75 °FSunny.9 mph47%30.09 "Hg10 mi
2:00 PM75 °FSunny.8 mph50%30.09 "Hg10 mi
1:00 PM73 °FSunny.9 mph53%30.12 "Hg10 mi
12:00 PM72 °FSunny.9 mph53%30.18 "Hg10 mi
11:00 AM70 °FSunny.13 mph57%30.21 "Hg10 mi
10:00 AM66 °FPassing clouds.14 mph68%30.21 "HgN/A
Weather by CustomWeather, © 2015

See weather overviewHow to use our weather pages